TimeEST,TemperatureF,Dew PointF,Humidity,Sea Level PressureIn,VisibilityMPH,Wind Direction,Wind SpeedMPH,Gust SpeedMPH,PrecipitationIn,Events,Conditions,WindDirDegrees,DateUTC
12:54 AM,28.9,28.0,96,29.90,7.0,Calm,Calm,-,N/A,,Overcast,0,2013-12-10 05:54:00
1:54 AM,28.9,27.0,92,29.88,10.0,Variable,4.6,-,N/A,,Overcast,0,2013-12-10 06:54:00
2:54 AM,28.9,27.0,92,29.89,9.0,NW,3.5,-,N/A,,Mostly Cloudy,310,2013-12-10 07:54:00
3:54 AM,28.9,27.0,92,29.87,10.0,Calm,Calm,-,N/A,,Scattered Clouds,0,2013-12-10 08:54:00
4:54 AM,30.0,26.1,85,29.89,10.0,Calm,Calm,-,N/A,,Clear,0,2013-12-10 09:54:00
5:54 AM,30.9,25.0,79,29.91,10.0,Variable,4.6,-,N/A,,Overcast,0,2013-12-10 10:54:00
6:54 AM,32.0,24.1,73,29.89,10.0,Calm,Calm,-,N/A,,Overcast,0,2013-12-10 11:54:00
7:54 AM,34.0,21.0,59,29.89,10.0,Calm,Calm,-,N/A,,Overcast,0,2013-12-10 12:54:00
8:54 AM,32.0,21.0,64,29.90,10.0,West,3.5,-,N/A,,Overcast,260,2013-12-10 13:54:00
9:54 AM,33.1,17.1,52,29.88,10.0,West,6.9,18.4,N/A,,Overcast,280,2013-12-10 14:54:00
10:54 AM,33.1,17.1,52,29.86,10.0,WSW,10.4,-,N/A,,Overcast,240,2013-12-10 15:54:00
11:54 AM,30.9,19.0,61,29.81,10.0,WSW,4.6,-,N/A,,Overcast,240,2013-12-10 16:54:00
12:54 PM,30.0,12.0,47,29.81,10.0,West,9.2,-,N/A,,Overcast,260,2013-12-10 17:54:00
1:24 PM,27.0,19.0,72,29.80,1.8,West,11.5,20.7,0.00,Snow,Light Snow,270,2013-12-10 18:24:00
1:34 PM,27.0,19.9,75,29.80,1.2,SW,8.1,-,0.00,Snow,Light Snow,230,2013-12-10 18:34:00
1:49 PM,26.6,21.2,80,29.79,3.0,SSW,5.8,-,0.00,Snow,Light Snow,200,2013-12-10 18:49:00
1:54 PM,27.0,21.0,78,29.81,7.0,Variable,3.5,-,0.00,,Overcast,0,2013-12-10 18:54:00
2:54 PM,28.0,21.0,75,29.81,10.0,SSE,4.6,-,N/A,,Mostly Cloudy,160,2013-12-10 19:54:00
3:54 PM,28.9,15.1,56,29.81,10.0,West,11.5,-,N/A,,Overcast,260,2013-12-10 20:54:00
4:31 PM,28.0,18.0,66,29.80,2.5,West,10.4,-,0.00,Snow,Light Snow,270,2013-12-10 21:31:00
4:49 PM,26.6,19.4,74,29.80,6.0,West,4.6,-,0.00,Snow,Light Snow,280,2013-12-10 21:49:00
4:54 PM,26.1,19.9,78,29.83,9.0,WNW,5.8,-,0.00,,Overcast,290,2013-12-10 21:54:00
5:04 PM,27.0,17.1,66,29.82,10.0,WNW,11.5,21.9,N/A,,Overcast,290,2013-12-10 22:04:00
5:54 PM,27.0,15.1,61,29.86,10.0,West,6.9,-,N/A,,Overcast,280,2013-12-10 22:54:00
6:54 PM,25.0,15.1,66,29.88,3.0,West,18.4,25.3,0.00,Snow,Light Snow,270,2013-12-10 23:54:00
7:28 PM,23.0,12.9,65,29.85,10.0,West,3.5,-,0.00,,Scattered Clouds,260,2013-12-11 00:28:00
7:54 PM,24.1,9.0,53,29.89,10.0,West,11.5,17.3,0.00,,Scattered Clouds,280,2013-12-11 00:54:00
8:54 PM,24.1,8.1,51,29.91,10.0,West,15.0,21.9,N/A,,Overcast,270,2013-12-11 01:54:00
9:54 PM,21.9,6.1,51,29.94,10.0,West,8.1,-,N/A,,Clear,270,2013-12-11 02:54:00
10:54 PM,19.9,6.1,55,29.95,10.0,WSW,4.6,-,N/A,,Clear,240,2013-12-11 03:54:00
11:54 PM,19.0,8.1,62,29.98,10.0,West,3.5,-,N/A,,Clear,280,2013-12-11 04:54:00